EHI
0 0 0 0 0 0 0 1 2 2 2 2 2 2 1 2 3 3 3 2 1 0 0 1 0 0 0 0 1 0 0 1 2 3 2 1 2 1 0 0 0 0 0
0 0 0 0 0 0 0 0 1 1 1 1 1 1 1 2 2 2 2 2 1 0 0 1 0 0 0 0 1 0 0 1 2 3 2 1 1 1 1 1 1 0 1
0 0 0 0 0 0 0 0 0 0 0 0 0 0 0 1 1 1 1 1 0 0 0 0 0 0 0 0 0 0 1 1 1 1 1 1 0 1 1 2 1 1 1
0 0 0 0 0 0 0 0 1 1 0 0 1 0 0 0 0 0 0 0 0 0 0 0 0 0 0 0 0 0 1 2 1 0 0 0 0 0 1 1 1 0 1
0 0 0 1 1 0 0 0 1 1 0 0 1 1 1 0 0 0 0 0 0 0 0 0 0 0 0 0 0 0 1 2 1 0 0 0 0 0 0 1 0 0 0
0 0 0 1 1 0 0 0 1 1 0 0 1 2 1 0 0 0 0 0 0 0 0 0 0 0 0 0 0 0 1 2 1 0 0 0 0 0 0 0 0 0 0
0 0 0 1 1 0 0 0 0 0 0 0 1 1 1 0 0 0 0 0 0 0 0 0 0 0 0 0 0 1 2 2 1 0 0 0 0 0 0 0 0 0 0
0 0 0 0 0 0 1 0 0 0 0 0 0 0 0 0 0 0 0 0 0 0 0 0 0 0 0 0 0 1 2 1 0 0 0 0 0 0 0 0 0 0 0
0 0 0 0 0 0 0 0 0 0 0 0 0 0 0 0 0 0 0 0 0 0 0 0 0 0 0 0 0 1 1 0 0 0 0 0 0 0 0 0 0 0 0
0 0 0 0 0 0 0 0 0 0 0 0 0 0 0 0 0 0 0 0 0 0 0 0 0 0 0 0 0 0 0 0 0 0 0 1 1 0 0 0 0 0 1
0 0 0 0 0 0 0 0 0 0 0 0 0 0 0 0 0 0 0 0 0 0 0 0 0 0 0 0 0 0 0 0 0 0 1 2 2 1 0 0 0 0 1
0 0 0 0 0 0 0 0 0 0 0 0 0 0 0 0 0 0 0 0 0 0 0 0 0 0 0 0 0 0 0 0 0 0 1 2 3 2 0 0 0 0 1
0 0 0 0 0 0 0 0 0 0 0 0 0 0 0 0 0 0 0 0 0 0 0 0 0 0 0 0 0 0 0 0 0 0 0 1 2 2 1 0 0 0 0
0 0 0 0 0 0 0 0 0 0 0 0 0 0 0 0 0 0 0 0 0 0 0 0 0 0 0 0 0 0 0 0 0 0 0 0 1 1 0 0 0 0 0
0 0 0 0 0 0 0 0 0 0 0 0 0 0 0 0 0 0 0 0 0 0 0 0 0 0 0 0 0 0 0 0 0 0 0 0 0 0 0 0 0 0 0
0 0 0 0 0 0 0 0 0 0 0 0 0 0 0 0 0 0 0 0 0 0 0 0 0 0 0 0 0 0 0 0 0 0 0 0 0 0 0 0 0 0 0
0 0 0 0 0 0 0 0 0 0 0 0 0 0 0 0 0 0 0 0 0 0 0 0 0 0 0 0 0 0 0 0 0 0 0 0 0 0 0 0 0 0 0
1 0 0 0 0 0 0 0 0 0 0 0 0 0 0 0 0 0 0 0 0 0 0 0 0 0 0 0 0 0 0 0 0 0 0 0 0 0 0 0 0 0 0
2 1 0 0 1 1 1 0 0 0 0 0 0 0 0 0 0 0 0 0 0 0 0 0 0 0 0 0 0 0 0 0 0 0 0 0 0 0 0 0 0 0 0
2 1 1 1 2 2 2 1 0 0 0 0 0 0 0 0 0 0 0 0 0 0 0 0 0 0 0 0 0 0 0 0 0 0 0 0 0 0 0 0 0 0 0
1 1 1 2 3 3 3 2 1 0 0 0 0 0 0 0 0 0 0 0 0 0 0 0 0 0 0 0 0 0 0 0 0 0 0 0 0 0 0 0 0 0 0
1 0 1 2 3 3 3 3 2 1 0 0 0 0 0 0 0 0 0 0 0 0 0 0 0 0 0 0 0 0 0 0 0 0 0 0 0 0 0 0 0 0 0
1 0 1 2 3 3 3 3 3 1 1 1 1 2 2 2 1 1 0 0 0 0 0 0 0 0 0 0 0 0 0 0 0 0 0 0 0 0 0 0 0 0 0
1 0 1 2 3 3 3 3 3 3 2 2 2 2 3 3 3 2 1 0 0 0 0 0 0 0 0 0 0 0 0 0 0 0 0 0 0 0 0 0 0 0 0
1 1 0 1 1 2 3 3 3 3 3 3 2 1 2 3 3 3 2 1 0 0 0 0 0 0 0 0 0 0 0 0 0 0 0 0 0 0 0 0 0 0 0
2 2 1 0 0 1 3 3 3 3 3 3 2 1 1 2 3 3 2 1 0 0 0 0 0 0 0 0 0 0 0 0 0 0 0 0 0 0 0 0 0 0 0
Wind_Speed
1 1 4 5 5 6 6 7 7 8 9 9 9 10 10 10 9 9 9 9 9 9 8 8 8 8 8 8 9 9 9 9 9 9 8 8 8 7 7 7 7 5 8
3 2 5 6 6 6 7 7 8 8 9 9 9 10 10 10 10 10 10 10 9 9 8 8 8 8 8 7 8 8 8 9 9 9 8 6 7 7 7 7 6 5 8
4 3 4 7 7 7 8 8 8 9 9 9 10 10 10 10 10 10 10 10 10 9 8 8 8 8 7 7 7 7 8 8 8 8 6 3 4 6 7 7 7 7 7
5 4 5 7 7 8 8 8 9 9 9 9 10 10 10 10 10 10 10 10 10 9 9 9 9 8 8 7 6 7 7 7 7 7 3 2 2 6 7 7 7 7 7
5 4 5 8 8 8 8 9 9 9 9 9 9 10 10 11 10 10 10 10 10 9 10 10 9 9 9 8 7 6 7 7 7 6 3 3 2 6 7 7 7 6 6
5 4 5 8 8 8 9 9 9 9 9 10 10 10 10 10 10 10 10 10 10 10 10 9 9 9 9 9 8 7 7 8 6 4 3 2 2 5 7 7 7 7 6
5 3 5 9 9 9 9 9 9 9 9 10 10 10 10 10 10 10 10 10 9 9 9 9 9 9 9 9 9 9 8 9 5 3 3 2 3 6 7 7 7 7 6
6 4 4 8 9 8 9 9 9 9 9 9 9 9 9 9 8 9 9 9 9 8 8 8 8 8 9 9 9 10 9 8 6 4 3 2 5 6 7 7 6 6 6
6 4 3 3 5 7 8 8 8 8 8 8 8 8 9 8 8 8 8 8 8 8 8 8 7 8 8 9 10 10 10 9 4 3 4 2 5 7 7 7 7 6 6
5 5 4 3 3 3 3 6 7 7 7 7 7 7 7 7 7 7 6 6 6 7 7 7 7 7 7 8 9 9 9 7 4 3 2 3 7 7 7 7 7 7 7
5 4 4 3 3 2 2 3 4 4 4 4 4 5 4 2 2 3 4 5 6 6 6 6 6 6 7 7 8 9 7 3 3 2 2 5 7 7 7 7 7 7 7
5 5 4 4 3 3 2 2 1 1 1 1 1 2 1 1 1 1 2 4 5 5 5 5 6 5 5 3 5 6 3 3 3 2 3 7 8 7 7 6 6 7 7
6 5 5 4 4 3 2 2 1 0 0 1 1 2 2 1 1 1 1 2 2 3 2 3 4 3 3 2 2 3 3 3 2 2 3 7 8 8 8 7 7 7 7
6 6 5 5 4 3 2 2 1 1 1 1 1 3 2 1 1 1 1 1 1 1 2 2 2 2 3 3 3 4 4 3 2 2 2 6 7 8 8 8 8 7 7
6 6 6 5 4 3 2 1 1 1 1 1 1 2 3 2 2 1 1 1 1 1 2 2 2 3 3 3 3 4 4 3 3 2 2 5 6 7 7 8 8 7 7
6 6 5 5 5 4 2 2 1 1 1 2 2 2 3 3 3 2 2 2 1 2 2 2 3 3 2 3 3 3 4 3 3 2 2 2 4 6 6 7 8 7 7
7 6 6 6 5 4 3 2 2 2 2 2 2 3 3 3 3 3 2 2 1 2 3 3 3 3 3 3 3 3 2 2 2 2 2 2 2 4 5 6 6 6 6
7 6 6 6 6 4 3 3 2 2 2 2 2 2 3 3 4 3 3 2 2 2 3 3 3 3 3 2 2 2 2 2 2 1 2 2 1 1 2 4 5 5 5
7 7 6 5 6 5 4 3 3 3 2 2 2 2 3 4 4 4 3 2 3 3 2 3 2 2 2 2 2 2 2 1 1 1 2 2 1 1 1 2 3 4 4
7 6 6 5 5 5 3 3 3 3 2 2 2 2 3 3 4 4 3 3 3 3 2 2 2 2 2 1 2 3 2 1 1 2 1 1 1 1 1 1 1 1 2
6 6 5 5 4 4 3 2 2 1 1 1 1 2 3 3 4 4 3 3 3 3 2 2 2 3 2 1 3 3 3 3 2 2 1 1 1 1 1 1 1 1 1
6 6 5 5 5 4 3 2 2 2 1 1 1 2 2 3 3 3 4 3 3 3 3 2 3 2 1 1 2 2 2 4 3 2 1 1 1 1 1 1 1 1 0
6 7 7 6 5 4 4 3 3 3 2 2 2 1 1 2 2 3 3 3 3 3 2 2 3 3 2 1 1 3 3 1 2 3 2 1 1 1 0 0 1 0 0
7 6 6 6 5 4 5 5 5 3 2 2 1 1 1 1 2 2 3 3 3 2 3 2 3 2 3 1 0 1 2 3 2 1 3 2 2 1 1 0 1 1 1
6 6 6 5 4 4 4 5 5 3 2 1 1 1 1 1 1 1 2 2 2 2 2 2 2 3 2 2 1 1 1 1 1 2 1 2 2 2 1 1 0 0 1
5 5 6 6 4 4 5 5 5 5 3 2 1 1 0 0 0 0 1 1 2 2 2 2 3 3 2 2 2 1 2 1 1 2 1 1 2 2 2 1 0 1 1
Wind_Direction
229 234 107 93 84 84 85 84 81 78 78 78 78 77 79 81 82 82 83 82 83 83 84 88 95 97 101 107 111 115 118 118 116 115 114 116 116 115 110 108 103 103 115
177 174 116 101 93 93 93 89 85 82 79 79 80 80 81 81 82 82 81 82 81 82 81 83 89 93 94 101 108 112 114 117 118 116 114 116 119 119 123 119 117 120 115
139 135 115 106 98 95 97 93 89 86 83 82 82 83 82 81 81 84 85 83 80 82 83 86 91 92 93 98 104 108 109 112 115 113 109 102 117 124 125 123 120 122 121
127 124 114 110 106 103 101 97 93 90 88 86 85 86 85 83 84 84 85 85 82 80 80 82 83 87 87 89 97 105 107 106 106 102 95 99 113 122 120 120 118 118 118
116 119 121 114 111 109 105 102 97 94 92 89 88 87 85 84 85 85 84 84 84 82 82 81 80 81 84 84 84 96 104 104 98 89 83 83 92 116 117 118 117 116 116
113 116 123 118 116 115 110 106 102 100 95 92 89 89 88 86 85 85 84 81 82 83 83 83 81 80 82 82 77 83 99 98 89 81 85 90 98 117 116 116 114 115 115
123 122 124 123 120 116 113 111 108 104 99 95 92 91 93 91 87 86 85 81 81 82 82 82 80 81 81 81 75 79 94 98 92 87 89 97 112 119 118 114 113 114 113
134 129 118 120 118 116 115 114 112 108 102 99 98 97 96 96 93 91 90 86 84 86 84 84 81 81 81 80 78 80 88 90 89 87 82 90 114 117 116 114 115 113 116
130 123 114 118 119 119 119 116 113 113 110 106 103 100 100 99 97 93 90 88 86 87 87 88 85 82 79 78 78 79 80 75 70 80 87 81 106 113 111 111 112 112 109
132 137 139 127 116 118 122 127 121 123 119 114 110 104 101 100 94 90 87 85 87 86 81 83 88 88 87 81 79 81 79 71 64 66 70 91 101 105 102 99 100 100 103
141 153 150 146 140 135 141 140 128 133 131 118 112 112 104 79 72 77 86 89 89 87 82 79 80 87 87 82 83 83 79 72 71 65 68 94 100 100 96 93 96 100 101
159 165 160 159 158 161 163 129 128 139 122 120 123 130 128 117 77 80 74 85 84 83 76 73 72 72 70 66 75 76 73 73 71 70 87 97 99 96 92 93 94 96 97
170 167 164 169 171 169 163 157 156 144 159 178 179 175 141 115 78 50 44 42 41 48 45 48 55 53 63 69 69 73 78 73 69 65 85 99 99 96 93 92 92 92 93
161 171 171 169 162 161 159 166 161 162 185 195 186 155 134 126 121 113 86 64 47 46 61 60 65 69 68 72 80 79 80 81 77 70 80 94 99 101 99 96 95 94 92
159 168 173 173 160 158 156 167 143 161 165 157 132 137 136 129 125 120 96 85 78 74 81 82 80 80 82 80 80 86 89 88 85 71 67 91 99 100 100 101 98 95 94
161 163 166 161 161 148 143 137 135 131 115 107 104 121 129 127 126 117 104 88 77 86 86 89 91 90 82 81 77 79 91 91 85 77 58 69 86 96 98 100 99 95 96
163 159 158 152 140 131 131 122 110 96 96 92 94 110 119 123 120 113 102 86 73 79 81 79 74 73 80 76 73 71 84 85 89 85 72 62 63 87 98 100 99 96 94
154 153 158 147 135 133 126 112 98 91 91 87 91 94 105 110 111 107 100 97 95 86 83 88 80 73 66 69 65 57 75 75 79 86 82 79 67 65 85 95 100 102 98
156 152 147 138 135 133 120 107 95 94 88 85 84 79 96 108 113 110 106 107 101 88 80 91 81 90 82 70 75 59 53 69 76 95 89 95 101 86 72 82 100 105 102
151 146 142 135 131 126 111 91 75 68 67 68 80 83 96 105 113 112 111 107 103 94 77 79 86 73 86 87 78 56 33 27 43 65 89 79 90 101 89 75 73 91 98
137 138 139 135 137 132 122 120 110 101 86 69 83 94 102 108 116 116 113 110 107 109 115 112 101 81 54 64 69 36 10 15 32 30 39 59 45 63 90 90 83 65 40
150 147 144 147 147 148 150 153 147 142 137 117 77 74 90 109 123 127 125 128 124 114 106 108 107 98 50 57 103 83 22 356 351 6 15 42 22 37 86 111 94 78 30
153 158 156 155 148 148 138 112 90 65 48 41 42 44 53 111 119 124 134 136 135 133 143 146 135 127 127 13 89 132 136 215 306 331 350 0 355 33 102 118 131 183 194
166 160 155 152 148 148 139 133 134 132 144 194 187 165 74 107 123 128 133 138 145 148 155 169 150 141 135 140 8 69 147 158 148 315 327 332 334 324 266 213 176 209 215
163 157 153 148 148 146 141 142 139 134 155 158 111 94 63 44 90 128 135 136 150 160 162 156 143 144 147 154 161 141 85 75 110 146 266 314 334 306 273 239 203 221 231
154 150 147 143 148 151 142 144 147 150 153 138 129 142 138 4 4 73 127 130 150 159 163 167 164 156 161 153 150 145 148 153 177 162 193 252 286 293 297 281 235 227 235